Regional Weather Roundup
Issued by NWS New Orleans/Baton Rouge, LA

Home | Current Version | Previous Version | Text Only | Print | Product List | Glossary On
Versions: 1 2 3 4 5 6 7 8 9 10 11 12 13 14 15 16 17 18 19 20 21 22 23 24 25 26 27 28 29 30 31 32 33 34 35 36 37 38 39 40 41 42 43 44 45 46 47 48 49 50
699
ASUS44 KLIX 232201
RWRLIX
NEW ORLEANS REGIONAL WEATHER ROUNDUP
NATIONAL WEATHER SERVICE NEW ORLEANS LA
500 PM CDT THU OCT 23 2014

NOTE: "FAIR" INDICATES FEW OR NO CLOUDS BELOW 12,000 FEET WITH NO
      SIGNIFICANT WEATHER AND/OR OBSTRUCTIONS TO VISIBILITY.
      SKY/WX - SKY CONDITION AND SIGNIFICANT WEATHER.
      TMP - AIR TEMPERATURE.     DP    - DEWPOINT TEMPERATURE.
      RH  - RELATIVE HUMIDITY.   PRES  - PRESSURE.
      HI  - HEAT INDEX.          WCI   - WIND CHILL INDEX.

*  THESE STATIONS ARE NOT NWS OR FAA STATIONS AND ARE NOT UNDER
   NWS QUALITY CONTROL.

LAZ038-040-048-061>063-065>067-069-232300-
SOUTHEAST LOUISIANA

CITY           SKY/WX    TMP DP  RH WIND       PRES   REMARKS
N.O. AUDUBON     N/A     73  50  43 MISG        N/A
N.O. INTL ARPT PTSUNNY   72  44  36 NE5       30.03F
N.O. LAKEFRONT MOSUNNY   72  50  45 NW5       30.04S
N.O. DOWNTOWN*   N/A     73  45  35 CALM      30.04S
SLIDELL        MOSUNNY   73  47  39 CALM      30.03S
BATON ROUGE    CLOUDY    70  50  49 CALM      30.05R
BOOTHVILLE     SUNNY     72  58  61 N8        30.03S
BELLE CHASSE   MOSUNNY   71  47  42 NE3       30.03S
BOGALUSA*        N/A     73  42  32 N6        30.05S
NEW ROADS*       N/A     68  54  61 NW7       30.07R
GONZALES*        N/A     72  50  46 MISG      30.04S
HAMMOND*       NOT AVBL
HOUMA*         SUNNY     72  48  43 N7        30.03S
PORT FOURCHON* CLEAR     72  54  53 NE9       30.06R

$$

MSZ070-080>082-232300-
SOUTHERN MISSISSIPPI

CITY           SKY/WX    TMP DP  RH WIND       PRES   REMARKS
MCCOMB         CLOUDY    69  45  41 N5        30.06S
GULFPORT       SUNNY     73  43  33 N6        30.02S
BILOXI         SUNNY     72  52  48 S7        30.03R
PASCAGOULA     SUNNY     75  42  30 NE3       30.03R
STENNIS ARPT*  SUNNY     73  39  29 VRB5      30.03S

$$

COASTAL OBSERVATIONS
LAKE AND NEARSHORE STATIONS

STATION/POSITION TIME  TEMP    WIND        PRES    WAVE
                       AIR SEA DIR/SP/G            HT/PER
                 (UTC) (F)     (DEG/KT/KT) (MB)    (FT/S)
PASCAGOULA       2100   73     130/  7/  8 1016.4
WAVELAND YACHT   2100   69     180/  4/  5 1016.1
GRAND ISLE       2100   71 74   70/  9/ 12 1017.2
SOUTHWEST PASS   2100   80 82              1016.6
NEW CANAL        2100   70 71  320/  2/  5 1017.5
SHELL BEACH      2100   70 69   70/  8/ 10 1016.8

OFFSHORE STATIONS

STATION/POSITION TIME  TEMP    WIND        PRES    WAVE
                       AIR SEA DIR/SP/G            HT/PER
                 (UTC) (F)     (DEG/KT/KT) (MB)    (FT/S)
64 S DAUPHIN ISL 2106   72 80   60/ 12/ 16 1016.7    3/ 6

$$




USA.gov is the U.S. government's official web portal to all federal, state and local government web resources and services.